sat.trackr.live / text

‹ back to catalog

GSAT0217 (GALILEO 21)

NORAD 43057 · 2017-079C

PAYLOAD ACTIVE UNKNOWN

§ Identity

Operator
Country
ESA
Launch date
2017-12-12
Launch site
FRGUI
Launch vehicle
Mass (kg)
RCS (m²)

Purposes: earth_obs, nav

External: N2YO · Heavens-Above · Gunter

§ Orbital elements

Epoch: 2026-09-14T02:25:45.307776Z

Period
844.70 min
Inclination
55.0506°
Eccentricity
0.0004056
Mean motion
1.70473980 rev/d
Perigee alt
23,210.2 km
Apogee alt
23,234.2 km
Semi-major
29,600.3 km
B*
0.0000e+0
RAAN
219.0588°
Arg perigee
304.8081°
Mean anomaly
55.1090°
Rev number
5,450

§ Raw data

GSAT0217 (GALILEO 21)1 43057U 17079C   26257.10121884  .00000010  00000+0  00000+0 0  99992 43057  55.0506 219.0588 0004056 304.8081  55.1090  1.70473980 54507

JSON: /api/v1/satellites/43057 · /tle

For live sub-satellite position, see the globe view (requires WebGL).

§ Visibility from observer

Set your observer location to see the next 7 days of passes ≥ 10°. The values pass through the URL so the page stays shareable.

No JS? Fill the form by hand. The geolocation button needs JavaScript.